ONEWEB-0019, 45449

Orbit data source: Space-Track

ONEWEB-0019, 45449 is a payload satellite owned by One Web (UK) in LEO that was launched on Sat, 21 Mar 2020 UTC via a SOYUZ-2-1B launch vehicle from the Tyuratam Missile And Space Complex (TTMTR). Payload-class satellites include a variety of spacecraft equipped with specific instruments for various scientific and technological missions. These include communications satellites like Starlink; space stations such as the ISS; scientific satellites like the Hubble; Earth observation satellites from companies like Planet Labs, Umbra, and HawkEye 360; GPS; miniature CubeSats for education and research; and military/defense satellites.

Loading next visibility...
Identifier
45449, 2020-020AB
Orbit
LEO
Country
Flag of UKUK
Related business
Manufacturer
One Web
Mission
Operational Commercial Communications
Bus & Motor
ARROW, Unknown motor
Mass
148 kg wet, ~140 kg dry
Launch date (UTC)
2020-03-21 (6 years ago)
Launch vehicle
SOYUZ-2-1B
Launch site
Tyuratam Missile And Space Complex (TTMTR)
Object type
Payload
Rocket body
Debris
Shape & HBR
Trap Box + 2 Pan, 6.7 m
Radar Cross Section
3.464 m², Large (>1 m²)

Expand to show TLE details & history
Last TLE update: 15 hours ago

TLE from 15 hours ago
0 ONEWEB-0019
1 45449U 20020AB  26254.58062728 -.00000141  00000-0 -43397-3 0  9994
2 45449  87.8969   3.8780 0001737  94.1706 265.9620 13.11417918313863
Epoch: 2026-09-11T13:56Z
TLE epoch observation values (Epoch: 2026-09-11T13:56:06.196Z)
Latitude
-0.0001°
Longitude
164.25024°
Altitude
1,220.661 km
Speed
7.244 km/s
True Right ascension
00h 15m 30s
True Declination
0° 00' 00"
Sunlit
Object was in full shadow at epoch
Visualization orbit readout
Latitude
Unknown
Longitude
Unknown
Altitude
Unknown
Speed
Unknown
Apparent Right ascension
Unknown
Apparent Declination
Unknown
Sunlit
N/A
Visualization observer readout
Local Sidereal Time
20:52:51
Azimuth
Unknown
Elevation
Unknown
Doppler factor
Unknown
Orbital elements
Apogee altitude
1,216.116 km
Perigee altitude
1,213.478 km
Semi-major axis
7,592.934 km
Eccentricity
0.00017
Inclination
87.8969°
RAAN
3.878°
Arg. of periapsis
94.1706°
True anomaly
265.94215°
Mean anomaly
265.962°
Eccentric anomaly
265.95207°
Mean motion
3.28041 °/min
Orbital period
109.74 mins
BSTAR
-0.00043397
Loading maneuver chart data...
Computing Atmospheric mass density...
Loading historical data...
Loading historical data...
Loading historical data...
Loading historical data...
Loading historical data...
Loading historical data...
Loading historical data...

Documentation

Showing up to 5 results
|